Weather observations for the past three days for
Manistee County - Blacker Airport
Imperial (Metric)
Date Time (edt) Wind (mph) Vis. (mi.) Weather Sky Cond. Temperature (ºF) Relative Humidity Wind Chill (°F) Heat Index (°F) Pressure Precipitation (in)
Air Dwpt 6 hour altimeter (in) sea level (mb) 1 hr 3 hr 6 hr
Max. Min.
20 15:56 W 9 10.00 Fair CLR 80.1 59 49% 81 30.08 1018.4
20 14:56 W 10 10.00 Fair CLR 79 60.1 52% 80 30.09 1018.8
20 13:56 SW 8 10.00 Fair CLR 79 61 80.1 57.9 54% 80 30.09 1018.9
20 12:56 W 8 10.00 Fair CLR 79 61 54% 80 30.1 1018.9
20 11:56 SW 7 10.00 Fair CLR 77 64 64% 79 30.1 1019.1
20 10:56 SW 5 10.00 Fair CLR 75 64.9 71% 77 30.09 1019.0
20 09:56 W 7 10.00 A Few Clouds FEW065 73 66.9 81% 30.1 1019.2
20 08:56 Calm 10.00 Fair CLR 64 63 96% 30.11 1019.5
20 07:56 Calm 9.00 Fair CLR 57.9 57.9 57.9 53.1 100% 30.1 1019.1
20 06:56 E 3 6.00 Fog/Mist CLR 54 54 100% 30.09 1018.8
20 05:56 E 3 6.00 Fog/Mist CLR 54 54 100% 30.08 1018.7
20 04:56 E 3 5.00 Fog/Mist CLR 54 54 100% 30.08 1018.4
20 03:56 E 3 8.00 Fair CLR 54 54 100% 30.08 1018.6
20 02:56 E 3 10.00 Fair CLR 55 55 100% 30.09 1018.8
20 01:56 E 3 10.00 Fair CLR 55 55 73 55 100% 30.1 1019.3
20 00:56 E 3 10.00 Fair CLR 55.9 55.9 100% 30.12 1019.7
19 23:56 E 3 10.00 Fair CLR 55 55 100% 30.11 1019.7
19 22:56 Calm 10.00 Fair CLR 59 55.9 90% 30.11 1019.6
19 21:56 SW 3 10.00 Fair CLR 66 55.9 70% 30.1 1019.1
19 20:56 SW 5 10.00 Fair CLR 70 55 59% 30.09 1019.0
19 19:56 SW 5 10.00 Fair CLR 73 54 78.1 73 51% 30.09 1018.9
19 18:56 SW 5 10.00 Fair CLR 75 53.1 46% 78 30.11 1019.7
19 17:56 W 12 10.00 Fair CLR 75.9 52 43% 78 30.12 1020.1
19 16:56 SW 10 10.00 Fair CLR 77 52 42% 78 30.13 1020.4
19 15:56 W 12 10.00 Fair CLR 77 53.1 43% 78 30.14 1020.5
19 14:56 W 13 10.00 Fair CLR 77 53.1 43% 78 30.14 1020.7
19 13:56 W 10 10.00 Fair CLR 75.9 55.9 75.9 53.1 50% 78 30.16 1021.3
19 12:56 SW 10 10.00 Fair CLR 75 59 58% 77 30.17 1021.6
19 11:56 W 9 10.00 Fair CLR 75 57.9 55% 78 30.17 1021.6
19 10:56 SW 10 10.00 Fair CLR 73 60.1 64% 30.18 1021.9
19 09:56 Vrbl 7 10.00 Fair CLR 70 64 82% 30.18 1022.1
19 08:56 E 3 10.00 Fair CLR 60.1 57.9 93% 30.19 1022.4
19 07:56 E 5 10.00 Fair CLR 53.1 53.1 53.1 46 100% 30.19 1022.4
19 06:56 Calm 10.00 Fair CLR 46.9 46.9 100% 30.18 1022.2
19 05:56 E 5 10.00 Fair CLR 46.9 46.9 100% 45 30.18 1022.0
19 04:56 E 5 6.00 Fog/Mist CLR 46.9 46.9 100% 45 30.17 1021.5
19 03:56 E 3 7.00 Fair CLR 48 48 100% 30.16 1021.4
19 02:56 E 3 6.00 Fog/Mist CLR 48 48 100% 30.16 1021.5
19 01:56 Calm 10.00 Fair CLR 46.9 46.9 69.1 46.9 100% 30.17 1021.7
19 00:56 E 3 8.00 Fair CLR 50 50 100% 30.17 1021.8
18 23:56 Calm 7.00 Fair CLR 51.1 51.1 100% 30.17 1021.7
18 22:56 Calm 10.00 Fair CLR 53.1 53.1 100% 30.17 1021.6
18 21:56 Calm 10.00 Fair CLR 55.9 53.1 90% 30.16 1021.3
18 20:56 NW 5 10.00 Fair CLR 64.9 54 68% 30.16 1021.3
18 19:56 N 3 10.00 Fair CLR 68 51.1 72 68 55% 30.16 1021.5
18 18:56 NW 7 10.00 Fair CLR 69.1 50 51% 30.17 1021.7
18 17:56 NW 10 10.00 Fair CLR 69.1 52 55% 30.18 1022.0
18 16:56 NW 13 10.00 Fair CLR 70 51.1 51% 30.18 1022.0
18 15:56 NW 9 10.00 Fair CLR 70 52 53% 30.18 1022.0
18 14:56 NW 14 G 17 10.00 Fair CLR 69.1 53.1 57% 30.18 1022.0
18 13:56 NW 13 10.00 Fair CLR 70 52 71.1 55.9 53% 30.18 1022.1
18 12:56 NW 10 10.00 Fair CLR 71.1 50 47% 30.18 1021.9
18 11:56 NW 10 10.00 Fair CLR 71.1 50 47% 30.18 1021.9
18 10:56 NW 9 10.00 Fair CLR 68 51.1 55% 30.18 1021.9
18 09:56 N 8 10.00 Fair CLR 66.9 54 63% 30.18 1022.1
18 08:56 N 6 10.00 Partly Cloudy SCT029 63 55 76% 30.18 1021.8
18 07:56 Calm 10.00 Fair CLR 55.9 55 60.1 48.9 97% 30.17 1021.8
18 06:56 SE 3 10.00 Fair CLR 48.9 48.9 100% 30.16 1021.2
18 05:56 Calm 10.00 Fair CLR 50 50 100% 30.14 1020.9
18 04:56 Calm 10.00 Fair CLR 52 52 100% 30.13 1020.2
18 03:56 Calm 10.00 Fair CLR 51.1 51.1 100% 30.12 1020.1
18 02:56 Calm 10.00 Fair CLR 53.1 53.1 100% 30.12 1020.1
18 01:56 N 3 10.00 Fair CLR 59 54 66 59 83% 30.12 1019.8
18 00:56 N 3 10.00 A Few Clouds FEW032 60.1 53.1 78% 30.11 1019.4
17 23:56 N 6 10.00 Mostly Cloudy BKN046 61 53.1 75% 30.09 1019.0
17 22:56 N 5 10.00 Partly Cloudy FEW030 SCT038 61 54 78% 30.09 1018.7
17 21:56 N 7 10.00 Partly Cloudy SCT035 62.1 54 75% 30.07 1018.3
17 20:56 N 8 G 16 10.00 Overcast FEW026 BKN034 OVC060 64.9 55.9 73% 30.06 1017.7
17 19:56 N 13 G 24 10.00 Mostly Cloudy FEW027 SCT035 BKN044 66 57 71.1 66 73% 30.04 1017.2
17 18:56 N 14 G 23 10.00 A Few Clouds FEW030 68 55.9 65% 30.03 1016.8
17 17:56 NW 12 G 21 10.00 A Few Clouds FEW065 69.1 55.9 63% 30.01 1016.2
17 16:56 N 12 G 20 10.00 Fair CLR 70 55 59% 30.01 1016.0
Date Time (edt) Wind (mph) Vis. (mi.) Weather Sky Cond. Air Dwpt Max. Min. Relative Humidity Wind Chill (°F) Heat Index (°F) altimeter (in) sea level (mb) 1 hr 3 hr 6 hr
6 hour
Temperature (ºF) Pressure Precipitation (in)